Regional Weather Roundup
Issued by NWS

Home | Current Version | Previous Version | Text Only | Print | Product List | Glossary On
Versions: 1 2 3 4 5 6 7 8 9 10 11 12 13 14 15 16 17 18 19 20 21 22 23 24 25 26 27 28 29 30 31 32 33 34 35 36 37 38 39 40 41 42 43 44 45 46 47 48 49 50
000
ASUS42 KKEY 282110
RWRKEY

FLORIDA REGIONAL WEATHER ROUNDUP FOR THE FLORIDA KEYS
NATIONAL WEATHER SERVICE KEY WEST FLORIDA
500 PM EDT WED SEP 28 2016

...SOUTH FLORIDA AND THE KEYS...

CITY           SKY/WX    TMP DP  RH WIND       PRES   REMARKS
FORT MYERS     MOSUNNY   86  73  65 W12       29.97S HX  93
SW REGIONAL AP MOSUNNY   86  71  60 SW12      29.98S HX  91
NAPLES         PTSUNNY   85  74  69 NW8       29.98S HX  92
MIAMI          CLOUDY    88  77  69 S14       29.98F HX 100
WEST KENDALL   PTSUNNY   84  73  69 S5        29.98F HX  90
HOMESTEAD      MOSUNNY   88  74  63 SW10      29.98F HX  96
MARATHON       SUNNY     86  74  67 VRB3      30.00S HX  94
BOCA CHICA NAS CLOUDY    87  72  60 S8        30.00S HX  93
KEY WEST INTL  MOSUNNY   86  73  65 S6        30.01R HX  93

...INTERNATIONAL WEATHER...

CITY           SKY/WX    TMP DP  RH WIND       PRES   REMARKS
NASSAU BAHAMAS MOSUNNY   90  73  58 S3        30.01S HX  98
CANCUN MEXICO  MOSUNNY   88  75  66 SE12      29.97F HX  97
COZUMEL MEXICO MOSUNNY   88  79  74 E9        29.95S HX 102

ADJACENT COASTAL WATERS...

STATION/POSITION TIME  SKY/WX   TEMP    WIND        PRES    WAVE
                                AIR SEA DIR/SP/G            HT/PER
                 (UTC)          (F)     (DEG/KT/KT) (MB)    (FT/S)
PULASKI SHOAL LI 2100            85     250/  4/  5 1016.2S
SAND KEY         2050            84     230/  3/  5 1016.5R
LONG KEY         2000            85 85  290/  1/  5 1016.3F
FOWEY ROCKS      2000            84 84  170/ 11/ 12 1016.1F

$$



USA.gov is the U.S. government's official web portal to all federal, state and local government web resources and services.